Weather Roundup
Issued by NWS

Home | Current Version | Previous Version | Text Only | Print | Product List | Glossary On
Versions: 1 2 3 4 5 6 7 8 9 10 11 12 13 14 15 16 17 18 19 20 21 22 23 24 25 26 27 28 29 30 31 32 33 34 35 36 37 38 39 40 41 42 43 44 45 46 47 48 49 50
093
NZUS93 KARX 201410
HRRWXR

CURRENT HOURLY OBSERVATIONS ACROSS
MUCH OF THE UPPER MISSISSIPPI VALLEY
NATIONAL WEATHER SERVICE LA CROSSE WI
900 AM CDT SUN MAY 20 2018


...SOUTHEAST MINNESOTA...


CITY           SKY/WX    TMP DP  RH WIND       PRES   REMARKS
ROCHESTER      CLOUDY    48  42  80 E12       30.20R
ROCHESTER/MAYO CLOUDY    48  40  72 NE6       30.20S
WINONA         CLOUDY    50  41  71 E7        30.20R
AUSTIN         CLOUDY    48  43  81 NE8       30.18R
ALBERT LEA     CLOUDY    50  39  66 NE10      30.19R
DODGE CENTER   CLOUDY    48  39  71 NE12      30.20R
PRESTON        CLOUDY    47  42  81 NE9       30.19R
OWATONNA       CLOUDY    48  39  71 NE12      30.20R
FARIBAULT      CLOUDY    48  39  71 CALM      30.22R
$$

...ELSEWHERE IN MINNESOTA...


CITY           SKY/WX    TMP DP  RH WIND       PRES   REMARKS
MINNEAPOLIS    PTSUNNY   51  36  56 E14       30.24R
INTNL FALLS    FAIR      56  36  47 W6        30.25R
DULUTH         FAIR      51  23  33 SE12      30.28R
RED WING       CLOUDY    48  34  57 E7        30.22R
REDWOOD FALLS  CLOUDY    50  35  56 NE12G20   30.21F
MANKATO        CLOUDY    48  37  66 NE12      30.22R
WORTHINGTON    CLOUDY    48  40  73 NE16      30.19R
FAIRMONT       CLOUDY    50  40  68 NE12      30.19R
$$

...SOUTHWEST WISCONSIN...


CITY           SKY/WX    TMP DP  RH WIND       PRES   REMARKS
LA CROSSE      CLOUDY    50  48  93 NE8       30.21R
PRAIRIE DU CHI LGT RAIN  54  50  86 E14       30.15S
BOSCOBEL       LGT RAIN  52  49  89 VRB6      30.19R
LONE ROCK      CLOUDY    51  48  89 E12       30.20R
PLATTEVILLE    CLOUDY    52  52 100 E13       30.17R
FORT MC COY    CLOUDY    47  46  96 NE6       30.22R
CAMP DOUGLAS   PTSUNNY   48  46  93 E6        30.22R
MAUSTON-NEW LI CLOUDY    48  45  90 E5        30.21R FOG
VIROQUA        CLOUDY    47  47 100 E12G17    30.19R
WIS DELLS      CLOUDY    47  43  87 NE9       30.22R
$$

...ELSEWHERE IN WISCONSIN...


CITY           SKY/WX    TMP DP  RH WIND       PRES   REMARKS
MILWAUKEE      CLOUDY    44  40  85 N13G29    30.23R
MADISON        RAIN      47  45  93 E7        30.20R FOG
GREEN BAY      FAIR      49  41  74 NE17      30.22S
EAU CLAIRE     FAIR      49  38  65 E9        30.24R
BLACK RVR FLS  CLOUDY    51  37  59 E8        30.22R
MEDFORD        FAIR      44  34  66 E10       30.23R
WAUSAU         FAIR      47  36  65 NE7       30.22R
WIS RAPIDS     CLOUDY    49  38  65 E3        30.23R
MARSHFIELD     FAIR      51  39  63 E9        30.22R
RICE LAKE      FAIR      49  32  52 NE6       30.26S
$$

...NORTHEAST IOWA...


CITY           SKY/WX    TMP DP  RH WIND       PRES   REMARKS
WATERLOO       CLOUDY    54  52  93 NE8       30.13R
DUBUQUE        LGT RAIN  50  48  93 NE7       30.15R
DECORAH        CLOUDY    50  48  93 NE8G14    30.16R
MASON CITY     CLOUDY    51  44  77 NE16      30.18R
CHARLES CITY   CLOUDY    50  46  87 NE13      30.16R
OELWEIN        CLOUDY    55  54  94 E18       30.13R
$$

...ELSEWHERE IN IOWA...


CITY           SKY/WX    TMP DP  RH WIND       PRES   REMARKS
DES MOINES     CLOUDY    58  52  80 NE10      30.10R
IOWA CITY      CLOUDY    63  59  87 NE17G23   30.10R
FORT DODGE     CLOUDY    52  46  80 NE9       30.16R
MARSHALLTOWN   CLOUDY    55  52  89 NE15      30.11R
CEDAR RAPIDS   CLOUDY    61  60  97 E15       30.09R FOG
$$

...NORTHERN ILLINOIS...


CITY           SKY/WX    TMP DP  RH WIND       PRES   REMARKS
CHICAGO-OHARE  CLOUDY    45  41  86 NE16      30.18R
CHICAGO-MIDWAY CLOUDY    47  42  83 N13       30.19R
MOLINE         CLOUDY    59  55  87 E17       30.12R
ROCKFORD       TSTM      46  43  89 NE12      30.23R FOG
PEORIA         FAIR      67  60  78 E12       30.09R HAZE
$$

NOTE: "FAIR" INDICATES FEW OR NO CLOUDS BELOW 12,000 FEET WITH NO
SIGNIFICANT WEATHER AND/OR OBSTRUCTIONS TO VISIBILITY. WIND
SPEEDS ARE IN MILES-PER-HOUR.




USA.gov is the U.S. government's official web portal to all federal, state and local government web resources and services.